Location: Fort Wayne
(41.1310°N, 85.1290°W)
Time: 20:53:59
(UTC-04:00)

OPAL - Visible Passes

Search period start: 20 August 2017 00:00
Search period end: 30 August 2017 00:00
Orbit: 743 x 796 km, 100.2° (Epoch: 20 August)

Date Brightness Start Highest point End Pass type
(mag) Time Alt. Az. Time Alt. Az. Time Alt. Az.
21 Aug 10.3 20:54:33 10° SW 20:57:53 18° W 21:01:14 10° NW visible
24 Aug 10.2 20:46:24 10° SW 20:50:16 22° W 20:54:06 10° NW visible
26 Aug 10.6 21:16:39 10° WSW 21:18:27 12° W 21:20:15 10° WNW visible
29 Aug 10.4 21:07:58 10° SW 21:10:47 15° W 21:13:36 10° WNW visible
